Showing default

OV1-9, 2610

Orbit data source: Space-Track

OV1-9, 2610 is a payload satellite owned by USAF OAR (US) in LEO that was launched on Sun, 11 Dec 1966 UTC via an ATLAS D launch vehicle from the Air Force Western Test Range (AFWTR). Payload-class satellites include a variety of spacecraft equipped with specific instruments for various scientific and technological missions. These include communications satellites like Starlink; space stations such as the ISS; scientific satellites like the Hubble; Earth observation satellites from companies like Planet Labs, Umbra, and HawkEye 360; GPS; miniature CubeSats for education and research; and military/defense satellites.

Loading next visibility...
Identifier
2610, 1966-111A
Orbit
LEO
Country
Flag of USUS
Related business
Manufacturer
GD/Convair
Mission
Spacecraft
Bus & Motor
OV1, Unknown motor
Mass
106 kg wet, 106 kg dry
Launch date (UTC)
1966-12-11 (59 years ago)
Launch vehicle
ATLAS D
Launch site
Air Force Western Test Range (AFWTR)
Object type
Payload
Rocket body
Debris
Shape & HBR
Unknown
Radar Cross Section
Medium (>0.1 m² and <1 m²)

Expand to show TLE details & history
Last TLE update: 2 days ago

TLE from 2 days ago
0 OV1-9
1 02610U 66111A   25305.99776560  .00001324  00000-0  52532-3 0  9998
2 02610  99.1104 210.4191 2274767   4.7837 357.1377 10.39542032209426
Epoch: 2025-11-01T23:56Z
TLE epoch observation values (Epoch: 2025-11-01T23:56:46.947Z)
Latitude
-0.00008°
Longitude
169.70369°
Altitude
479.253 km
Speed
8.447 km/s
True Right ascension
14h 01m 40s
True Declination
0° 00' 00"
Sunlit
Object was in daylight at epoch
Visualization orbit readout
Latitude
Unknown
Longitude
Unknown
Altitude
Unknown
Speed
Unknown
Apparent Right ascension
Unknown
Apparent Declination
Unknown
Sunlit
N/A
Visualization observer readout
Local Sidereal Time
19:30:31
Azimuth
Unknown
Elevation
Unknown
Doppler factor
Unknown
Orbital elements
Apogee altitude
4,504.452 km
Perigee altitude
470.916 km
Semi-major axis
8,865.821 km
Eccentricity
0.22748
Inclination
99.1104°
RAAN
210.4191°
Arg. of periapsis
4.7837°
True anomaly
355.33151°
Mean anomaly
357.1377°
Eccentric anomaly
356.29563°
Mean motion
2.59995 °/min
Orbital period
138.46 mins
BSTAR
0.00052532
Loading maneuver chart data...
Computing Atmospheric mass density...
Loading historical data...
Loading historical data...
Loading historical data...
Loading historical data...
Loading historical data...
Loading historical data...
Loading historical data...
Other satellites on launch #111 in the year 1966 (1966-12-11 UTC)

Documentation

Showing up to 5 results
|